Weather History for Nellis AFB, NV

Change the Weather History Date:

Monday, November 25, 2013

  Actual Average Record
Temperature  
Mean Temperature 50 °F -  
Max Temperature 62 °F 60 °F 71 °F (1998)
Min Temperature 38 °F 38 °F 30 °F (2010)
Degree Days  
Heating Degree Days 15    
Moisture  
Dew Point 39 °F    
Average Humidity 71    
Maximum Humidity 99    
Minimum Humidity 38    
Precipitation  
Precipitation 0.00 in - - ()
Sea Level Pressure  
Sea Level Pressure 30.25 in    
Wind  
Wind Speed 3 mph (ENE)    
Max Wind Speed 9 mph    
Max Gust Speed -    
Visibility 10 miles    
Events      
Averages and records for this station are not official NWS values.
T = Trace of Precipitation, MM = Missing Value Source: NWS Daily Summary

Daily Weather History Graph

Daily Weather History Graph

Search for Another Location

Airport:

Trip Planner

Search our weather history database for the weather conditions in past years. The results will help you decide how hot, cold, wet, or windy it might be!

Date:

Astronomy

Nov. 25, 2013 Rise Set
Actual Time 6:27 AM PST 4:26 PM PST
Civil Twilight 5:59 AM PST 4:54 PM PST
Nautical Twilight 5:27 AM PST 5:26 PM PST
Astronomical Twilight 4:57 AM PST 5:57 PM PST
Moon 11:47 PM PST (11/25) 11:53 AM PST (11/25)
Length of Visible Light 10h 55m
Length of Day
9h 59m
Waning Gibbous, 50% of the Moon is Illuminated
Nov 25
Waning Gibbous
Dec 2
New
Dec 9
First Quarter
Dec 17
Full
Dec 25
Last Quarter

Hourly Weather History & Observations

Time (PST) Temp. Windchill Dew Point Humidity Pressure Visibility Wind Dir Wind Speed Gust Speed Precip Events Conditions
12:58 AM 42.8 °F - 41.2 °F 94% 30.21 in 10.0 mi NNE 2.3 mph - N/A   Clear
1:58 AM 43.5 °F - 40.6 °F 90% 30.21 in 10.0 mi SW 2.3 mph - N/A   Clear
2:58 AM 41.5 °F 39.6 °F 41.4 °F 99% 30.21 in 10.0 mi NE 3.5 mph - N/A   Clear
3:58 AM 40.8 °F 38.8 °F 40.6 °F 99% 30.22 in 10.0 mi North 3.5 mph - N/A   Clear
4:58 AM 40.5 °F - 38.5 °F 93% 30.23 in 10.0 mi Calm Calm - N/A   Clear
5:58 AM 39.7 °F 36.5 °F 39.0 °F 97% 30.25 in 10.0 mi NW 4.6 mph - N/A   Clear
6:58 AM 38.5 °F - 38.3 °F 99% 30.26 in 10.0 mi ENE 2.3 mph - N/A   Clear
7:58 AM 41.9 °F - 39.7 °F 92% 30.29 in 10.0 mi Calm Calm - N/A   Clear
8:58 AM 46.2 °F - 38.8 °F 75% 30.30 in 10.0 mi Calm Calm - N/A   Clear
9:58 AM 51.4 °F - 39.7 °F 64% 30.29 in 10.0 mi NNW 2.3 mph - N/A   Clear
10:58 AM 54.3 °F - 39.9 °F 58% 30.27 in 10.0 mi ESE 3.5 mph - N/A   Clear
11:58 AM 58.1 °F - 37.2 °F 46% 30.25 in 10.0 mi ENE 5.8 mph - N/A   Clear
12:58 PM 61.2 °F - 37.0 °F 41% 30.22 in 10.0 mi East 6.9 mph - N/A   Clear
1:58 PM 62.2 °F - 36.7 °F 39% 30.20 in 10.0 mi SE 5.8 mph - N/A   Clear
2:58 PM 62.1 °F - 37.4 °F 40% 30.22 in 10.0 mi SSW 4.6 mph - N/A   Clear
3:58 PM 62.1 °F - 36.3 °F 38% 30.22 in 10.0 mi SE 2.3 mph - N/A   Clear
4:58 PM 58.1 °F - 39.6 °F 50% 30.22 in 10.0 mi SE 2.3 mph - N/A   Clear
5:58 PM 54.7 °F - 40.5 °F 59% 30.25 in 10.0 mi NE 4.6 mph - N/A   Clear
6:58 PM 50.7 °F - 41.0 °F 69% 30.27 in 10.0 mi NE 9.2 mph - N/A   Clear
7:58 PM 50.7 °F - 39.6 °F 66% 30.27 in 10.0 mi ENE 5.8 mph - N/A   Clear
8:58 PM 50.7 °F - 39.6 °F 66% 30.28 in 10.0 mi Calm Calm - N/A   Clear
9:58 PM 46.6 °F - 42.1 °F 84% 30.29 in 10.0 mi East 1.2 mph - N/A   Clear
10:58 PM 46.8 °F - 40.6 °F 79% 30.30 in 10.0 mi Calm Calm - N/A   Clear
11:58 PM 45.5 °F 41.8 °F 39.4 °F 79% 30.29 in 10.0 mi NNE 6.9 mph - N/A   Clear